Deelen, Netherlands

12:14 AM CEST on October 22, 2017 (GMT +0200)
Deelen Air Base

Weather History for EHDL - November, 2013

Change the Weather History Date:

Tuesday, November 12, 2013

  Actual Average Record
Temperature  
Mean Temperature 44 °F -  
Max Temperature 46 °F 44 °F 57 °F (2015)
Min Temperature 41 °F 35 °F 27 °F (2016)
Degree Days  
Heating Degree Days 21    
Moisture  
Dew Point 42 °F    
Average Humidity 90    
Maximum Humidity 100    
Minimum Humidity 71    
Precipitation  
Precipitation 0.00 in - - ()
Sea Level Pressure  
Sea Level Pressure 30.25 in    
Wind  
Wind Speed 10 mph ()    
Max Wind Speed 18 mph    
Max Gust Speed -    
Visibility 4.6 miles    
Events Fog , Rain    
Averages and records for this station are not official NWS values.
T = Trace of Precipitation, MM = Missing Value Source: Averaged Metar Reports

Daily Weather History Graph

Daily Weather History Graph

Search for Another Location

Airport or City:

Trip Planner

Search our weather history database for the weather conditions in past years. The results will help you decide how hot, cold, wet, or windy it might be!

Date:

Astronomy

Nov. 12, 2013 Rise Set
Actual Time 7:51 AM CET 4:49 PM CET
Civil Twilight 7:14 AM CET 5:26 PM CET
Nautical Twilight 6:33 AM CET 6:07 PM CET
Astronomical Twilight 5:53 AM CET 6:46 PM CET
Moon 2:29 PM CET (11/12) 1:45 AM CET (11/12)
Length of Visible Light 10h 12m
Length of Day
8h 57m
Waxing Gibbous, 74% of the Moon is Illuminated
Nov 12
Waxing Gibbous
Nov 17
Full
Nov 25
Last Quarter
Dec 3
New
Dec 9
First Quarter

Hourly Weather History & Observations

Time (CET) Temp. Windchill Dew Point Humidity Pressure Visibility Wind Dir Wind Speed Gust Speed Precip Events Conditions
12:25 AM 46.4 °F 40.7 °F 37.4 °F 71% 30.30 in 6.2 mi South 12.7 mph - N/A   Overcast
12:55 AM 44.6 °F 38.4 °F 37.4 °F 76% 30.30 in 6.2 mi South 12.7 mph - N/A   Overcast
1:25 AM 44.6 °F 38.4 °F 37.4 °F 76% 30.30 in 6.2 mi South 12.7 mph - N/A   Mostly Cloudy
1:55 AM 44.6 °F 38.1 °F 37.4 °F 76% 30.30 in 6.2 mi South 13.8 mph - N/A   Overcast
2:25 AM 44.6 °F 38.4 °F 35.6 °F 71% 30.27 in 6.2 mi South 12.7 mph - N/A   Overcast
2:55 AM 44.6 °F 38.1 °F 37.4 °F 76% 30.27 in 6.2 mi South 13.8 mph - N/A   Overcast
3:25 AM 44.6 °F 38.4 °F 37.4 °F 76% 30.24 in 6.2 mi South 12.7 mph - N/A   Mostly Cloudy
3:55 AM 44.6 °F 38.8 °F 37.4 °F 76% 30.24 in 6.2 mi South 11.5 mph - N/A   Overcast
4:25 AM 44.6 °F 38.4 °F 35.6 °F 71% 30.24 in 6.2 mi South 12.7 mph - N/A   Mostly Cloudy
4:55 AM 42.8 °F 36.2 °F 37.4 °F 81% 30.24 in 6.2 mi South 12.7 mph - N/A   Overcast
5:25 AM 42.8 °F 37.0 °F 37.4 °F 81% 30.24 in 6.2 mi South 10.4 mph - N/A   Overcast
5:55 AM 42.8 °F 35.8 °F 37.4 °F 81% 30.21 in 6.2 mi SSW 13.8 mph - N/A   Overcast
6:25 AM 44.6 °F 38.4 °F 37.4 °F 76% 30.21 in 6.2 mi South 12.7 mph - N/A   Overcast
6:55 AM 44.6 °F 38.8 °F 37.4 °F 76% 30.21 in 6.2 mi South 11.5 mph - N/A   Overcast
7:25 AM 44.6 °F 38.4 °F 37.4 °F 76% 30.21 in 6.2 mi South 12.7 mph - N/A   Overcast
7:55 AM 44.6 °F 38.4 °F 37.4 °F 76% 30.21 in 6.2 mi SSW 12.7 mph - N/A   Overcast
8:25 AM 44.6 °F 36.9 °F 37.4 °F 76% 30.21 in 6.2 mi SSW 18.4 mph - N/A   Overcast
8:55 AM 44.6 °F 37.4 °F 39.2 °F 81% 30.21 in 6.2 mi SSW 16.1 mph - N/A   Overcast
9:25 AM 44.6 °F 38.1 °F 39.2 °F 81% 30.21 in 6.2 mi SSW 13.8 mph - N/A   Overcast
9:55 AM 42.8 °F 36.2 °F 41.0 °F 93% 30.21 in 5.6 mi South 12.7 mph - N/A   Overcast
10:25 AM 42.8 °F 36.2 °F 41.0 °F 93% 30.21 in 4.3 mi SSW 12.7 mph - N/A   Overcast
10:55 AM 42.8 °F 36.2 °F 41.0 °F 93% 30.21 in - SSW 12.7 mph - N/A   Overcast
11:25 AM 42.8 °F 36.6 °F 41.0 °F 93% 30.21 in - South 11.5 mph - N/A   Overcast
11:55 AM 42.8 °F 37.0 °F 42.8 °F 100% 30.21 in 1.9 mi SSW 10.4 mph - N/A   Overcast
12:05 PM 42.8 °F 37.5 °F 42.8 °F 100% 30.21 in - South 9.2 mph - N/A   Overcast
12:25 PM 42.8 °F 38.0 °F 42.8 °F 100% 30.21 in - SSW 8.1 mph - N/A   Drizzle
12:55 PM 42.8 °F 38.0 °F 42.8 °F 100% 30.21 in 1.9 mi SSW 8.1 mph - N/A Rain Light Rain
1:25 PM 44.6 °F 39.7 °F 42.8 °F 93% 30.21 in - SSW 9.2 mph - N/A   Overcast
1:55 PM 44.6 °F 39.7 °F 42.8 °F 93% 30.21 in - SSW 9.2 mph - N/A   Light Drizzle
2:25 PM 44.6 °F 40.2 °F 42.8 °F 93% 30.21 in 3.1 mi SSW 8.1 mph - N/A   Heavy Drizzle
2:55 PM 44.6 °F 40.2 °F 44.6 °F 100% 30.21 in - SSW 8.1 mph - N/A   Light Drizzle
3:25 PM 44.6 °F 40.7 °F 44.6 °F 100% 30.21 in 3.1 mi SSW 6.9 mph - N/A   Drizzle
3:55 PM 44.6 °F 40.7 °F 44.6 °F 100% 30.21 in 4.3 mi SW 6.9 mph - N/A   Overcast
3:57 PM 44.6 °F 41.4 °F 44.6 °F 100% 30.21 in 4.3 mi WSW 5.8 mph - N/A Rain Light Rain
4:25 PM 44.6 °F 42.2 °F 44.6 °F 100% 30.21 in 3.1 mi SW 4.6 mph - N/A Rain Light Rain
4:55 PM 44.6 °F 43.1 °F 44.6 °F 100% 30.21 in 4.3 mi West 3.5 mph - N/A   Light Drizzle
5:25 PM 44.6 °F 43.1 °F 44.6 °F 100% 30.24 in 3.7 mi West 3.5 mph - N/A   Overcast
5:55 PM 44.6 °F 43.1 °F 44.6 °F 100% 30.24 in 3.7 mi WNW 3.5 mph - N/A   Overcast
6:25 PM 46.4 °F - 44.6 °F 93% 30.24 in - West 2.3 mph - N/A   Overcast
6:55 PM 46.4 °F 44.3 °F 46.4 °F 100% 30.27 in - NW 4.6 mph - N/A   Overcast
7:25 PM 46.4 °F 45.2 °F 46.4 °F 100% 30.27 in 1.2 mi NW 3.5 mph - N/A   Overcast
7:55 PM 46.4 °F 45.2 °F 46.4 °F 100% 30.27 in 0.4 mi NW 3.5 mph - N/A Fog Fog
8:05 PM 46.4 °F 44.3 °F 46.4 °F 100% 30.27 in - NW 4.6 mph - N/A Fog Fog
8:25 PM 46.4 °F 44.3 °F 46.4 °F 100% 30.30 in 0.6 mi NW 4.6 mph - N/A Fog Fog
8:55 PM 46.4 °F 44.3 °F 46.4 °F 100% 30.30 in 1.1 mi NW 4.6 mph - N/A   Mostly Cloudy
9:25 PM 46.4 °F 45.2 °F 46.4 °F 100% 30.30 in 1.4 mi NW 3.5 mph - N/A   Overcast
9:55 PM 46.4 °F 44.3 °F 44.6 °F 93% 30.33 in - NW 4.6 mph - N/A   Overcast
10:25 PM 44.6 °F 42.2 °F 44.6 °F 100% 30.33 in 3.1 mi NNW 4.6 mph - N/A   Mostly Cloudy
10:55 PM 44.6 °F 43.1 °F 44.6 °F 100% 30.33 in 3.7 mi NW 3.5 mph - N/A   Mostly Cloudy
11:25 PM 42.8 °F 40.1 °F 42.8 °F 100% 30.36 in 5.0 mi NW 4.6 mph - N/A   Mist
11:55 PM 41.0 °F 39.0 °F 41.0 °F 100% 30.36 in 5.6 mi WNW 3.5 mph - N/A   Partly Cloudy